Overview Statistics Trail Chart Weather Telemetry Raw packets
 

This is the latest recevied weather packets stored in our database for station/object F1DKL-13. If no packets are shown the sender has not sent any weather packets the latest 10 day(s).

<< 15 16 17 18 19 20 21 >>
Time Temp. Humidity Pressure Rain* Wind** Luminosity Snow
1777896904 11.67° C 89% 1022.6 hPa 0 mm - - -
1777896604 11.67° C 94% 1022.6 hPa 1.02 mm - - -
1777896304 12.22° C 94% 1022.6 hPa 1.02 mm - - -
1777896004 12.22° C 98% 1022.6 hPa 1.02 mm - - -
1777895704 12.22° C 98% 1022.6 hPa 1.02 mm - - -
1777895404 12.78° C 98% 1022.6 hPa 1.02 mm - - -
1777895104 12.22° C 98% 1022.6 hPa 1.02 mm - - -
1777894804 12.22° C 98% 1022.6 hPa 1.02 mm - - -
1777894504 11.67° C 98% 1022.6 hPa 1.02 mm - - -
1777894204 11.67° C 97% 1022.6 hPa 1.02 mm - - -
1777893904 11.67° C 95% 1022.6 hPa 1.02 mm - - -
1777893604 11.11° C 94% 1022.6 hPa 1.02 mm - - -
1777893304 11.11° C 96% 1022.6 hPa 2.29 mm - - -
1777893004 11.11° C 98% 1022.6 hPa 1.27 mm - - -
1777892704 11.11° C 97% 1022.6 hPa 1.27 mm - - -
1777892404 11.11° C 95% 1022.6 hPa 2.29 mm - - -
1777892404 11.11° C 95% 1022.6 hPa 2.29 mm - - -
1777892104 10.56° C 95% 1023.6 hPa 2.29 mm - - -
1777891804 10.56° C 91% 1023.6 hPa 2.29 mm - - -
1777891504 10.56° C 89% 1023.6 hPa 2.29 mm - - -
1777891204 10.56° C 89% 1022.6 hPa 2.29 mm - - -
1777890904 10.56° C 89% 1022.6 hPa 2.29 mm - - -
1777890604 10.56° C 86% 1022.6 hPa 3.3 mm - - -
1777890304 10° C 83% 1022.6 hPa 3.3 mm - - -
1777890004 10° C 82% 1022.6 hPa 3.3 mm - - -

* Rain latest hour (hover to see other rain measurements)
** Current wind speed in m/s (hover to see current wind gust speed)